Regional Weather Roundup
Issued by NWS

Home | Current Version | Previous Version | Text Only | Print | Product List | Glossary Off
Versions: 1 2 3 4 5 6 7 8 9 10 11 12 13 14 15 16 17 18 19 20 21 22 23 24 25 26 27 28 29 30 31 32 33 34 35 36 37 38 39 40 41 42 43 44 45 46

000
ASUS45 KTFX 281410
RWRMT
MONTANA REGIONAL WEATHER ROUNDUP
NATIONAL WEATHER SERVICE GREAT FALLS MT
800 AM MDT THU MAY 28 2015

NOTE: "FAIR" INDICATES FEW OR NO CLOUDS BELOW 12000 FEET WITH NO
SIGNIFICANT WEATHER AND/OR OBSTRUCTIONS TO VISIBILITY.

MTZ001>007-043-281500-
WEST OF THE DIVIDE

CITY           SKY/WX    TMP DP  RH WIND       PRES   REMARKS
KALISPELL      PTSUNNY   54  49  83 CALM      30.09R
MISSOULA       CLOUDY    52  46  80 CALM      30.12R
BUTTE          CLOUDY    45  42  89 CALM      30.13R
MULLAN PASS    CLOUDY    45  43  93 VRB5      30.16R
DEER LODGE       N/A     48  46  93 CALM      30.16R
EUREKA           N/A     52  52 100 CALM        N/A  VSB 0
HAMILTON         N/A     54  46  76 SW5       30.11S
LIBBY            N/A     52  50  93 CALM      30.12R
PLAINS           N/A     49  46  89 CALM      30.12R VSB 0
RONAN            N/A     53  51  93 CALM      30.14R
THOMPSON FALLS   N/A     49  49 100 CALM      30.15R
$$

MTZ008-052>055-281500-
SOUTHWEST MONTANA

CITY           SKY/WX    TMP DP  RH WIND       PRES   REMARKS
BOZEMAN        CLOUDY    51  48  89 W6        30.10R
DILLON         CLOUDY    49  43  80 S7        30.11R
W YELLOWSTONE  MIX PCPN  41  39  93 CALM      30.14S
THREE FORKS      N/A     51  31  46 S7        30.08R
$$

MTZ009-010-012-014-046-048-049-054-281500-
EAST SLOPES AND CENTRAL MONTANA

CITY           SKY/WX    TMP DP  RH WIND       PRES   REMARKS
CUT BANK       PTSUNNY   53  47  79 N24       30.06R
GREAT FALLS    PTSUNNY   54  48  80 SW7       30.04R
MALMSTROM AFB  PTSUNNY   55  49  80 W6        30.04R
HELENA         CLOUDY    54  49  83 CALM      30.07R
CONRAD           N/A     54  52  93 W13       30.07R
$$

MTZ011-013-016-021-045-047-050-051-281500-
NORTH CENTRAL MONTANA

CITY           SKY/WX    TMP DP  RH WIND       PRES   REMARKS
HAVRE          CLOUDY    51  50  96 SW7       29.99R
LEWISTOWN      CLOUDY    55  47  74 W7        30.04S
N BAR RANCH    FAIR      57  48  72 W14       30.05R
CHINOOK          N/A     55  54  94 W6        29.99R
FORT BENTON      N/A     55  50  82 SW7       30.03R
$$

MTZ017>020-022>027-061-062-281500-
NORTHEAST MONTANA

CITY           SKY/WX    TMP DP  RH WIND       PRES   REMARKS
GLASGOW        PTSUNNY   57  52  83 NW9       29.92R
JORDAN           N/A     58  53  84 NW9       29.95R
SIDNEY         CLOUDY    55  54  94 S6        29.89F
WOLF POINT     CLOUDY    55  53  93 W3        29.90S FOG
MALTA            N/A     57  49  75 SW8       29.93R
PLENTYWOOD       N/A     59  55  88 N10       29.89S
POPLAR           N/A     55  54  94 CALM      29.90S
SCOBEY           N/A     56  53  89 E7        29.90F
$$

MTZ028>42-056>058-281500-
SOUTHCENTRAL AND SOUTHEAST MONTANA

CITY           SKY/WX    TMP DP  RH WIND       PRES   REMARKS
BAKER          SUNNY     60  54  80 NW10      29.94S
BILLINGS       PTSUNNY   53  45  74 SW8       30.02R
LIVINGSTON     CLOUDY    52  47  83 W6        30.07R
MILES CITY     SUNNY     55  54  96 W6        29.94S
BIG TIMBER       N/A     52  45  76 W8        30.07R
EKALAKA          N/A     59  53  80 W8        29.94S
LAUREL           N/A     50  46  85 SW2       30.01R
ROUNDUP          N/A     52  46  79 S5        29.93R
$$

REGIONAL REPORTS...DAKOTAS

CITY           SKY/WX    TMP DP  RH WIND       PRES   REMARKS
WILLISTON      SUNNY     60  56  86 SW7       29.88S
MINOT          CLOUDY    60  57  89 CALM      29.84F
DICKINSON      MOSUNNY   58  55  90 NW6       29.88F
BEACH          FAIR      59  59 100 W8        29.93S
CROSBY         PTSUNNY   59  59 100 NW6       29.89S
WATFORD CITY   CLOUDY    54  54 100 SW8       29.87S FOG
BISMARCK       CLOUDY    63  58  83 SW7       29.88S
GRAND FORKS    CLOUDY    60  58  92 SE10      29.90F
FARGO          LGT RAIN  63  59  87 SE9       29.91F FOG
BUFFALO SD       N/A     62  57  83 W10       29.87R
RAPID CITY     SUNNY     60  55  83 N3        29.94R
$$

REGIONAL REPORTS...WYOMING/IDAHO/WASHINGTON

CITY           SKY/WX    TMP DP  RH WIND       PRES   REMARKS
GILLETTE       PTSUNNY   56  50  80 NW8       30.01R
SHERIDAN       CLOUDY    56  49  77 W9        30.02R
BUFFALO WY     PTSUNNY   54  46  74 N8        30.04S
CODY           CLOUDY    50  45  81 W6        30.07R
YELLOWSTONE LA   N/A     33  32  96 CALM      30.19R
IDAHO FALLS    CLOUDY    49  48  97 NW6       30.12R
SALMON         CLOUDY    50  46  87 CALM      30.12R
BOISE          SUNNY     55  45  68 S5        30.08R
SPOKANE        PTSUNNY   56  49  77 S8        30.06R
$$

REGIONAL REPORTS...ALBERTA

CITY           SKY/WX    TMP DP  RH WIND       PRES   REMARKS
EDMONTON       PTSUNNY   45  36  70 N20       30.25R
CALGARY        LGT RAIN  48  43  81 N18       30.18R
LETHBRIDGE     CLOUDY    55  48  76 NW14      30.10R
MEDICINE HAT   CLOUDY    54  52  94 W7        30.02R
$$

REGIONAL REPORTS...SASKATCHEWAN

CITY           SKY/WX    TMP DP  RH WIND       PRES   REMARKS
SWIFT CURRENT  SUNNY     57  48  72 W6        29.95S
REGINA         CLOUDY    59  54  82 SE7       29.92F
SASKATOON      CLOUDY    52  50  93 N16G25    29.97R
$$



USA.gov is the U.S. government's official web portal to all federal, state and local government web resources and services.